TimeEST,TemperatureF,Dew PointF,Humidity,Sea Level PressureIn,VisibilityMPH,Wind Direction,Wind SpeedMPH,Gust SpeedMPH,PrecipitationIn,Events,Conditions,WindDirDegrees,DateUTC
12:53 AM,71.1,69.1,93,30.18,10.0,NE,6.9,-,N/A,,Clear,40,2011-11-21 05:53:00
1:27 AM,71.6,69.8,94,30.17,10.0,NE,9.2,-,N/A,,Partly Cloudy,50,2011-11-21 06:27:00
1:53 AM,72.0,70.0,93,30.17,10.0,NE,8.1,-,N/A,,Overcast,50,2011-11-21 06:53:00
2:41 AM,71.6,69.8,94,30.15,9.0,NE,8.1,-,N/A,,Partly Cloudy,50,2011-11-21 07:41:00
2:53 AM,72.0,70.0,93,30.15,9.0,NE,6.9,-,N/A,,Scattered Clouds,50,2011-11-21 07:53:00
3:33 AM,71.6,69.8,94,30.15,9.0,NE,8.1,-,N/A,,Mostly Cloudy,50,2011-11-21 08:33:00
3:44 AM,71.6,69.8,94,30.15,9.0,NE,8.1,-,N/A,,Scattered Clouds,50,2011-11-21 08:44:00
3:53 AM,72.0,70.0,93,30.14,9.0,NE,5.8,-,N/A,,Mostly Cloudy,50,2011-11-21 08:53:00
4:16 AM,71.6,69.8,94,30.15,9.0,NE,5.8,-,N/A,,Mostly Cloudy,50,2011-11-21 09:16:00
4:29 AM,71.6,69.8,94,30.14,9.0,NE,5.8,-,N/A,,Scattered Clouds,50,2011-11-21 09:29:00
4:53 AM,71.1,70.0,96,30.14,9.0,ENE,6.9,-,N/A,,Partly Cloudy,60,2011-11-21 09:53:00
5:12 AM,71.6,71.6,100,30.15,9.0,ENE,8.1,-,N/A,,Mostly Cloudy,60,2011-11-21 10:12:00
5:53 AM,72.0,71.1,97,30.15,9.0,East,8.1,-,N/A,,Overcast,80,2011-11-21 10:53:00
6:53 AM,73.4,71.6,94,30.17,8.0,ENE,8.1,-,N/A,,Overcast,70,2011-11-21 11:53:00
7:53 AM,73.0,72.0,96,30.19,6.0,ENE,8.1,-,N/A,,Overcast,70,2011-11-21 12:53:00
8:53 AM,73.9,72.0,93,30.20,8.0,ENE,9.2,-,N/A,,Mostly Cloudy,60,2011-11-21 13:53:00
9:53 AM,77.0,72.0,84,30.21,9.0,East,10.4,-,N/A,,Mostly Cloudy,80,2011-11-21 14:53:00
10:00 AM,77.0,71.6,83,30.21,9.0,ENE,11.5,-,N/A,,Scattered Clouds,70,2011-11-21 15:00:00
10:14 AM,77.0,71.6,83,30.21,9.0,East,8.1,-,N/A,,Mostly Cloudy,80,2011-11-21 15:14:00
10:53 AM,78.1,72.0,81,30.19,10.0,ENE,10.4,-,N/A,,Mostly Cloudy,70,2011-11-21 15:53:00
11:53 AM,82.0,71.1,69,30.17,10.0,ENE,6.9,-,N/A,,Scattered Clouds,70,2011-11-21 16:53:00
12:53 PM,82.0,70.0,67,30.14,10.0,Variable,5.8,-,N/A,,Mostly Cloudy,0,2011-11-21 17:53:00
1:53 PM,84.0,70.0,63,30.10,10.0,East,5.8,-,N/A,,Partly Cloudy,80,2011-11-21 18:53:00
2:53 PM,82.0,72.0,71,30.08,10.0,WNW,11.5,-,N/A,,Mostly Cloudy,290,2011-11-21 19:53:00
3:53 PM,81.0,72.0,74,30.08,10.0,WNW,6.9,-,N/A,,Scattered Clouds,290,2011-11-21 20:53:00
4:53 PM,79.0,73.0,82,30.10,10.0,NW,6.9,-,N/A,,Mostly Cloudy,310,2011-11-21 21:53:00
5:21 PM,75.2,71.6,89,30.12,1.0,East,25.3,29.9,0.10,Rain,Heavy Rain,100,2011-11-21 22:21:00
5:49 PM,71.6,66.2,83,30.11,2.5,NW,3.5,-,1.26,Rain,Rain,320,2011-11-21 22:49:00
5:53 PM,71.1,68.0,90,30.11,2.5,WNW,4.6,-,1.26,Rain,Rain,290,2011-11-21 22:53:00
6:00 PM,71.6,69.8,94,30.11,8.0,WSW,5.8,-,0.00,Rain,Rain,250,2011-11-21 23:00:00
6:53 PM,73.9,72.0,93,30.12,10.0,Calm,Calm,-,0.01,,Mostly Cloudy,0,2011-11-21 23:53:00
7:41 PM,75.2,71.6,89,30.13,3.0,NNE,3.5,-,0.04,Rain,Heavy Rain,20,2011-11-22 00:41:00
7:53 PM,73.9,72.0,93,30.14,3.0,Calm,Calm,-,0.05,,Overcast,0,2011-11-22 00:53:00
7:58 PM,73.4,71.6,94,30.14,2.0,Variable,6.9,-,0.08,Rain,Heavy Rain,0,2011-11-22 00:58:00
8:05 PM,73.4,71.6,94,30.14,1.2,South,8.1,-,0.13,Rain,Light Rain,180,2011-11-22 01:05:00
8:21 PM,73.4,71.6,94,30.14,3.0,Calm,Calm,-,0.27,Rain,Light Rain,0,2011-11-22 01:21:00
8:30 PM,73.4,71.6,94,30.14,10.0,Calm,Calm,-,0.27,,Overcast,0,2011-11-22 01:30:00
8:53 PM,73.9,72.0,93,30.14,9.0,NNE,3.5,-,0.27,,Mostly Cloudy,30,2011-11-22 01:53:00
9:53 PM,73.9,73.0,97,30.15,10.0,ENE,4.6,-,N/A,,Mostly Cloudy,70,2011-11-22 02:53:00
10:53 PM,73.9,72.0,93,30.16,10.0,East,3.5,-,N/A,,Overcast,80,2011-11-22 03:53:00
11:53 PM,73.0,72.0,96,30.14,10.0,East,3.5,-,N/A,,Overcast,100,2011-11-22 04:53:00